Location: Beaufort Park
(39.1418°N, 76.9433°W)
Time: 00:17:33
(UTC+00:00)

Meteor 2-10 Rocket - Pass Details

Date: 29 October 2020
Orbit: 734 x 885 km, 81.2° (Epoch: 03 December)

Event Time Altitude Azimuth Distance (km) Brightness Sun altitude
Rises 22:49:21 0° 168° (SSE) 3,314 6.8 -8.3°
Reaches altitude 10° 22:51:54 10° 160° (SSE) 2,362 5.9 -8.8°
Maximum altitude 22:56:48 39° 93° (E) 1,150 4.0 -9.7°
Drops below altitude 10° 23:01:33 10° 25° (NNE) 2,293 5.6 -10.6°
Sets 23:03:59 0° 18° (NNE) 3,206 6.4 -11.1°
